RH
45 46 46 46 47 48 48 49 49 49 49 50 50 50 50 50 50 51 52 53 55 57 58 58 58 56 54 53 52 50 48 44 42 44 50 64 78 89 93 93 93 93 93 92 92 92 92 92 92 92 92 90 90 89 88 87 86 84 84 84 84 84 84 84 83 83 82 81 80 78 78 78 78 79 80 80 80 80 80 81 82 82 83 84 84 83
42 42 42 43 44 44 46 47 49 50 50 50 51 52 52 52 52 52 53 53 54 56 58 60 60 58 57 55 54 52 50 46 44 43 47 58 72 84 92 92 92 92 93 93 92 92 92 92 92 91 90 90 89 88 88 86 85 84 84 84 85 85 85 85 84 84 83 82 81 80 79 79 80 80 81 80 80 80 81 82 83 84 84 85 84 84
38 38 39 40 42 43 45 47 49 51 52 52 53 54 54 54 54 55 56 55 55 56 58 60 60 60 58 57 56 54 52 49 46 43 44 52 63 76 87 90 92 92 92 92 92 92 92 92 92 92 90 90 89 88 88 87 86 85 85 86 86 86 86 86 85 84 84 82 82 81 80 80 81 82 82 81 81 81 82 84 84 84 85 85 85 84
34 34 36 38 41 43 46 48 51 53 54 54 55 56 56 57 57 58 58 58 58 58 58 60 60 60 60 58 56 55 53 51 47 44 42 47 56 67 80 87 90 92 92 92 92 92 92 92 92 92 91 90 90 89 88 87 87 86 86 86 86 86 86 86 86 85 84 83 82 82 81 81 82 82 82 81 81 82 84 85 85 85 86 86 85 83
32 33 35 39 42 46 48 50 53 55 56 57 58 58 58 58 59 60 60 60 60 60 60 60 60 60 59 58 57 55 54 52 49 46 43 45 51 60 72 82 88 90 91 91 92 92 92 92 92 92 92 90 90 89 88 88 87 87 86 86 86 86 86 86 86 85 85 84 83 82 82 82 82 82 82 81 82 83 85 86 86 86 86 86 84 83
32 35 38 43 46 49 51 53 55 56 58 59 60 60 60 60 60 60 61 62 62 61 61 61 60 60 58 58 56 55 54 52 50 47 44 44 48 56 66 76 84 88 90 90 90 92 92 92 92 92 92 91 90 90 89 88 88 87 87 86 86 86 86 86 86 86 85 84 84 83 82 82 82 82 82 82 82 84 86 87 87 87 86 86 84 83
36 39 43 48 50 52 54 55 56 58 60 61 62 62 62 62 62 62 62 62 62 62 61 60 60 59 57 56 55 54 53 51 50 48 46 45 48 53 62 73 81 87 90 90 90 90 91 92 92 92 92 91 90 90 89 89 88 88 87 86 86 86 86 86 86 86 85 84 84 83 83 83 82 82 82 82 83 85 87 88 88 87 87 86 85 84
42 44 48 52 54 56 57 57 58 60 63 64 65 66 66 65 65 64 64 63 62 62 61 60 60 58 56 54 53 52 51 50 49 48 46 46 48 52 59 70 79 86 90 90 90 90 90 91 92 92 92 92 91 90 90 89 88 88 88 87 87 86 86 86 86 86 85 85 84 84 83 83 83 82 82 83 84 86 88 88 88 88 87 86 85 84
50 52 54 57 60 61 62 61 62 63 66 68 69 70 70 70 69 68 67 66 66 65 64 64 62 60 58 55 52 51 49 49 48 48 47 47 49 52 58 68 77 84 90 90 90 90 90 91 92 92 92 92 91 90 90 90 89 88 88 88 87 87 86 86 86 86 86 86 85 85 84 84 83 83 83 83 85 87 88 88 88 88 88 87 86 85
60 62 63 64 67 69 70 69 69 69 71 72 73 74 74 76 76 76 76 75 74 72 72 69 67 64 60 57 54 52 50 49 48 48 48 49 50 54 58 67 76 83 88 90 91 90 90 91 92 92 92 92 92 91 90 90 90 89 89 88 88 87 87 87 87 87 87 87 87 86 86 85 84 84 83 84 85 87 89 89 89 88 88 87 86 85
71 72 73 74 74 75 76 76 76 76 77 78 78 78 78 80 82 83 83 81 79 78 77 75 72 68 64 60 56 54 52 50 50 49 50 51 53 56 60 68 76 82 88 90 91 91 90 90 91 92 92 92 92 92 92 90 90 90 89 89 88 88 88 88 88 88 88 88 88 88 88 87 86 85 84 84 86 88 89 89 89 88 88 87 86 85
78 78 79 79 79 79 80 80 81 82 83 83 83 82 82 83 84 86 84 82 80 80 80 78 76 72 68 63 60 56 55 53 52 52 52 53 55 58 64 70 77 83 88 90 90 90 90 90 90 92 92 92 92 92 92 92 90 90 90 90 89 89 89 89 89 89 89 89 89 89 89 88 87 86 86 86 87 88 89 89 89 88 88 87 86 85
81 82 82 82 82 83 84 85 85 86 86 86 86 86 85 85 86 85 83 81 80 80 81 80 77 74 70 66 63 60 58 58 56 55 54 55 58 62 68 74 81 86 88 90 90 90 90 90 90 91 92 92 92 92 92 92 92 91 90 90 90 90 90 90 90 90 90 90 90 90 90 89 88 88 87 87 88 89 89 89 89 88 88 87 86 85
83 84 86 86 85 85 86 87 87 87 86 86 86 87 87 87 86 85 83 81 80 80 81 80 78 76 73 70 67 65 64 62 60 59 58 58 61 66 71 78 84 88 89 89 89 89 90 90 90 90 91 92 92 92 92 92 92 92 91 91 90 90 90 90 90 90 90 90 90 90 90 90 90 89 88 88 89 89 89 89 89 88 88 87 86 85
81 82 83 82 82 82 82 83 83 83 82 83 84 85 86 86 86 85 84 83 82 81 81 79 78 76 74 73 72 71 70 68 66 64 62 62 65 69 74 80 85 88 90 90 90 89 90 90 90 91 91 92 92 92 92 92 92 92 92 92 92 92 92 92 92 92 92 92 92 92 92 91 90 90 90 90 90 90 90 89 89 88 88 87 86 86
77 78 78 76 76 76 77 78 79 80 79 80 82 83 84 84 84 84 85 84 84 83 82 80 79 77 74 74 74 75 75 74 72 70 67 66 68 71 76 82 86 89 90 90 90 90 90 90 91 91 91 92 92 92 92 92 92 92 92 92 92 92 92 92 92 92 92 92 92 92 92 92 92 91 90 90 90 90 90 89 89 89 88 88 87 86
76 76 75 74 74 74 74 77 78 79 79 80 82 82 83 83 83 83 84 84 84 83 83 82 81 79 76 74 74 76 78 78 76 74 72 71 72 74 78 84 88 89 90 90 90 90 90 90 91 91 91 91 92 92 92 92 92 92 92 92 92 92 92 92 92 92 92 92 92 92 92 92 91 90 90 90 90 90 90 89 89 89 88 88 88 87
76 76 76 76 75 74 76 77 79 80 81 82 83 83 84 83 83 83 82 82 82 82 81 81 81 81 80 78 77 77 79 80 79 77 75 75 76 78 82 86 88 90 90 89 89 90 90 90 90 90 90 91 91 92 92 92 92 92 92 92 92 92 92 92 92 92 92 92 92 92 92 91 90 90 90 90 90 90 89 89 89 89 89 88 88 87
78 77 77 77 76 76 76 78 79 81 84 85 86 86 85 84 82 81 80 80 80 80 80 81 80 80 80 81 81 82 82 81 80 79 78 78 79 81 84 87 89 90 90 90 90 90 90 90 90 90 90 90 91 91 91 91 91 92 91 91 91 92 92 92 92 92 92 92 92 91 91 90 90 90 90 90 90 89 89 89 89 89 88 88 88 87
81 81 80 79 79 78 78 78 80 83 86 87 87 86 86 84 82 80 78 78 78 79 80 81 81 81 82 83 84 85 85 83 82 80 79 79 80 81 85 88 88 89 89 90 90 90 90 90 90 90 90 90 90 90 90 90 90 90 90 90 90 91 92 92 92 92 92 92 91 90 90 90 90 90 90 90 89 89 89 89 89 88 88 88 87 87
83 81 79 80 82 82 80 79 80 83 86 87 87 86 85 84 83 81 79 78 78 79 79 80 80 80 82 84 84 85 86 84 82 80 80 79 80 80 83 86 88 89 89 90 90 90 90 90 90 90 90 90 90 90 90 90 90 90 90 90 90 90 91 92 92 92 92 91 90 90 90 90 90 90 89 89 89 89 88 88 88 88 88 87 87 86
85 83 81 82 84 84 83 82 83 84 87 86 86 86 85 85 84 82 80 80 79 79 78 79 79 80 83 84 85 85 85 84 83 82 81 79 79 79 81 84 86 87 88 89 90 90 90 90 89 89 88 89 89 90 90 90 90 90 90 90 90 90 90 91 92 92 91 90 90 90 90 90 89 89 89 89 88 88 88 88 88 88 87 87 86 86
88 86 85 85 85 85 85 85 85 86 87 87 87 86 85 85 85 84 82 81 80 79 78 78 79 80 82 83 84 85 85 84 84 83 83 81 79 79 80 82 84 85 86 87 89 90 90 89 88 88 88 88 88 88 89 89 89 89 90 90 90 90 90 90 91 91 91 90 90 90 90 90 89 89 88 88 88 88 88 88 88 87 87 86 86 86
89 88 88 87 87 87 87 87 87 88 87 87 87 86 86 85 85 84 83 82 81 80 78 78 78 79 79 80 82 83 84 85 85 84 84 82 81 81 81 82 82 82 83 85 87 89 89 88 88 87 87 87 87 88 88 88 88 88 88 88 89 89 90 90 90 91 91 90 90 90 90 89 89 88 88 88 88 88 88 88 87 87 86 86 86 85
89 89 89 88 88 88 88 88 88 87 87 87 87 86 86 85 84 84 83 82 81 80 79 79 78 78 78 79 80 81 82 84 84 85 85 84 83 83 83 83 82 82 81 83 85 87 88 88 88 87 87 87 87 87 87 87 86 86 86 86 86 88 89 90 90 90 91 90 90 90 90 89 89 88 88 88 88 88 87 87 87 87 86 86 85 85
89 89 88 88 88 87 87 87 87 87 87 87 86 86 86 86 85 84 84 82 81 80 80 80 80 79 79 80 80 80 80 82 83 84 85 85 84 84 84 84 84 82 81 81 82 84 86 86 87 87 87 87 87 87 87 86 86 86 85 85 85 86 87 89 90 90 91 90 90 90 90 89 88 88 88 88 88 88 87 87 87 87 86 86 85 84
87 87 87 87 87 86 85 85 85 85 86 86 86 85 85 85 84 83 81 80 80 82 83 82 81 80 80 81 80 80 80 82 83 83 84 84 84 84 84 85 85 84 82 81 81 82 83 84 86 86 87 87 87 87 87 87 86 85 85 84 84 85 86 88 89 90 90 90 90 90 89 89 88 88 88 88 88 87 87 87 87 86 86 86 85 84
86 86 86 86 86 86 86 84 84 83 83 82 82 82 83 83 81 79 77 78 81 83 83 82 81 81 82 82 82 82 83 83 82 82 83 83 83 83 84 85 86 85 84 82 82 81 82 82 84 85 86 86 86 86 87 86 86 85 84 84 84 84 85 87 88 89 90 90 90 89 89 88 88 88 88 88 88 87 87 87 87 86 86 85 84 83
87 87 87 87 87 87 87 86 84 83 82 81 80 80 81 80 78 76 76 78 81 82 81 80 80 81 82 84 84 85 85 83 82 82 83 83 83 82 84 86 86 86 85 84 83 82 81 81 82 84 85 85 86 86 86 86 85 84 84 84 84 84 85 86 88 88 89 89 89 89 88 88 88 88 88 87 87 87 87 87 86 86 85 84 83 82
87 87 87 88 88 88 87 87 86 86 85 84 84 84 84 82 79 77 76 78 80 80 78 79 80 81 83 85 86 86 84 83 82 83 84 84 84 84 86 87 87 87 86 86 84 83 80 80 81 82 84 85 85 85 85 84 84 84 83 83 83 84 84 86 87 88 88 88 88 88 88 88 88 87 87 87 87 86 86 86 86 85 84 83 82 81
86 86 87 88 88 88 88 87 87 87 87 87 87 87 87 85 83 80 79 79 78 78 78 78 79 80 82 85 86 85 82 83 84 85 86 86 86 86 87 87 87 87 87 87 86 84 82 80 80 81 82 84 84 84 84 84 83 83 83 83 83 84 84 86 87 88 88 88 88 88 88 88 87 87 87 86 86 86 86 85 85 84 83 82 81 80
85 86 87 88 88 88 88 88 87 87 87 87 87 87 88 87 86 84 82 80 79 78 78 78 78 79 80 82 82 82 81 84 85 86 87 87 87 87 87 88 88 87 87 87 87 86 84 82 81 80 81 82 83 83 83 83 83 82 82 82 83 84 85 86 87 88 88 88 88 88 87 87 87 86 86 86 86 85 85 84 84 83 82 81 80 79
84 85 86 87 88 88 88 88 88 88 88 88 88 88 88 88 87 86 86 84 81 80 78 78 78 78 79 79 79 78 78 82 84 86 86 86 87 87 87 88 88 88 87 87 87 87 86 84 83 82 81 81 82 83 84 84 83 83 82 82 83 84 85 87 88 88 88 88 87 87 87 87 86 86 86 86 85 84 84 84 83 82 81 80 79 78
81 82 83 84 85 86 87 88 88 88 88 88 88 88 88 88 87 87 87 86 84 82 81 80 79 79 79 78 78 76 75 78 81 84 84 85 86 86 87 88 88 88 87 87 87 86 86 85 84 83 82 80 80 82 84 84 85 84 84 84 84 84 85 87 88 88 88 87 87 87 86 86 86 86 85 85 84 84 84 83 82 82 81 80 79 78
78 77 77 78 79 80 82 84 86 87 88 88 88 88 88 88 88 88 88 87 86 85 84 82 80 80 79 79 78 76 74 76 80 83 83 83 83 84 86 87 87 87 87 87 86 86 85 84 84 84 83 81 80 81 82 85 86 86 86 85 85 85 86 87 87 88 87 87 87 86 86 86 86 86 85 85 84 84 83 83 82 81 80 80 79 78
76 74 72 72 73 74 76 78 81 83 85 86 87 88 88 88 88 88 88 88 88 87 85 84 82 81 80 79 78 78 77 79 82 83 83 82 82 83 84 86 87 87 87 86 86 85 85 84 84 84 84 82 81 80 81 84 86 87 87 86 86 85 86 86 87 87 87 87 86 86 86 86 86 86 85 85 84 84 84 83 82 81 80 79 78 78
78 76 74 73 73 73 73 74 76 79 82 84 86 87 88 88 88 88 88 88 87 86 84 82 82 81 80 80 80 81 81 83 84 85 84 82 82 82 84 84 86 88 87 87 86 86 86 85 85 85 85 84 82 81 81 83 85 87 87 86 86 86 86 86 86 87 87 86 86 86 86 86 86 86 85 85 84 84 84 82 82 80 80 79 78 77
82 80 78 76 76 75 74 74 76 77 80 82 84 87 88 88 88 88 87 86 85 83 82 80 80 79 80 81 82 83 84 85 86 86 85 83 82 82 83 84 86 87 88 88 87 87 87 86 86 85 85 84 84 83 83 84 85 86 87 87 86 86 86 86 86 86 86 86 86 86 86 86 86 86 85 85 84 84 83 82 81 80 79 78 78 77
83 82 80 79 78 78 78 77 78 79 81 83 85 87 88 88 88 87 87 86 86 84 83 82 81 80 80 82 83 84 85 86 86 86 86 85 84 83 84 85 86 87 88 88 88 87 87 86 86 85 85 85 84 84 85 84 85 86 86 87 87 86 86 86 86 86 86 86 86 86 86 86 86 85 85 84 84 84 83 82 81 80 80 79 78 77
84 83 81 80 79 79 79 80 80 81 83 84 85 86 88 88 88 88 88 88 87 87 86 85 83 82 81 81 82 83 85 86 87 87 87 87 86 86 86 86 87 88 88 88 88 87 87 86 86 85 85 85 85 85 85 85 85 85 86 86 86 86 86 86 86 86 86 86 86 86 86 86 86 85 84 84 84 83 82 82 82 82 81 80 78 77
85 83 81 80 79 79 80 81 82 83 83 83 84 84 86 87 88 88 88 88 88 88 87 86 85 84 82 80 80 81 82 84 86 87 87 87 87 87 87 87 87 87 87 87 87 87 87 87 86 86 86 85 85 85 85 85 85 85 85 86 86 86 86 86 86 86 86 86 86 86 86 86 85 85 84 84 84 83 83 83 83 83 82 81 80 78
84 83 82 81 80 80 81 82 83 83 82 82 82 82 84 86 87 88 89 88 88 88 88 87 87 86 84 82 80 80 81 82 85 86 87 87 87 87 87 87 87 87 87 87 86 86 86 86 86 86 86 85 85 85 84 84 84 85 85 85 85 85 86 86 86 86 86 86 86 86 86 85 85 85 85 85 84 84 84 83 83 83 82 82 81 80
83 82 81 81 81 82 82 82 83 82 82 81 81 82 84 85 87 88 89 89 88 88 88 88 88 87 86 84 81 80 79 81 83 85 86 86 86 86 87 87 87 87 87 86 86 85 84 85 85 86 85 86 86 85 84 84 84 85 84 84 85 85 85 85 85 85 85 85 85 85 85 85 85 85 85 85 84 84 84 83 83 82 82 81 80 80
83 82 82 82 82 82 82 82 82 81 81 81 81 82 84 85 86 87 88 88 88 88 88 88 88 87 86 84 82 80 79 79 81 83 84 84 84 84 84 85 86 86 86 86 86 86 85 85 85 85 85 86 86 85 84 84 84 84 84 84 84 84 84 84 84 84 84 84 84 84 84 85 85 85 85 84 84 84 84 83 83 82 82 81 80 80
85 84 84 84 84 84 84 83 82 82 82 81 81 82 82 84 85 86 87 88 88 88 88 88 88 87 86 84 83 82 81 80 80 81 82 82 82 82 83 83 84 85 86 86 86 86 86 86 85 85 85 86 85 85 84 84 84 84 84 84 84 84 83 83 84 84 84 83 83 83 84 84 84 84 84 84 84 84 84 83 83 82 82 81 80 79
87 87 86 86 86 86 86 85 85 84 84 82 82 82 82 84 85 86 87 88 88 88 88 88 88 87 86 85 84 84 83 82 81 80 80 81 82 82 82 83 84 84 86 86 86 86 86 86 86 85 86 85 85 84 83 83 83 83 83 83 84 83 83 83 83 83 82 82 82 82 82 82 82 82 82 82 82 82 82 82 82 81 81 80 80 79
88 88 88 88 88 88 87 87 87 86 85 83 82 82 82 83 84 86 88 88 88 88 88 88 88 87 86 86 85 85 85 84 82 82 82 82 82 82 83 84 84 84 85 86 86 86 86 86 86 85 85 85 84 83 82 82 82 82 82 82 83 83 82 82 82 81 82 81 81 81 81 81 81 80 80 80 79 79 79 79 79 79 78 78 78 77
88 88 88 88 88 88 88 88 88 86 85 84 83 83 83 83 84 85 87 89 89 88 88 88 88 88 87 86 86 86 86 86 85 84 83 82 82 83 84 84 85 85 85 85 85 85 86 85 85 85 85 84 84 83 82 82 81 80 80 80 81 81 81 80 80 80 81 81 81 81 81 81 80 79 78 77 76 76 76 75 75 75 76 76 75 75
88 88 88 88 88 88 88 88 88 87 86 84 84 84 84 84 84 84 86 88 89 88 88 88 88 88 87 87 87 87 86 86 86 85 84 84 83 84 84 84 85 85 85 85 85 85 85 85 84 84 84 84 83 82 81 80 79 78 78 78 78 78 78 78 79 80 81 81 81 81 81 80 79 78 78 76 75 74 72 72 71 71 71 71 71 71
88 88 88 88 88 88 88 88 88 87 86 86 86 86 86 85 85 86 86 88 89 89 88 88 88 88 88 87 87 86 86 86 86 86 85 84 84 84 85 85 85 86 86 85 85 85 85 84 83 82 82 82 81 80 79 78 77 76 76 76 76 76 76 76 78 80 81 81 80 80 80 79 79 78 77 76 74 72 70 69 68 67 67 67 67 67
88 88 88 88 88 88 88 88 88 88 88 87 87 87 87 87 87 87 87 88 88 89 88 88 88 88 87 87 87 86 86 86 86 86 86 86 86 86 86 86 86 86 86 86 85 85 85 84 83 81 80 80 79 78 78 77 76 76 76 74 74 75 76 76 78 80 80 80 80 80 79 78 78 76 76 74 72 70 68 66 65 65 64 65 64 64
Wind_Speed
61 62 62 63 63 64 64 64 64 63 63 64 64 63 63 63 62 61 59 56 54 52 50 49 49 49 49 49 48 48 48 49 50 51 51 52 51 50 49 47 46 46 47 47 48 48 49 49 50 50 51 51 51 51 50 49 48 48 48 48 49 50 51 52 52 52 53 53 53 53 54 54 54 53 53 52 51 51 51 51 51 51 50 50 50 50
59 60 61 62 62 62 63 63 62 62 61 62 62 62 61 61 61 61 60 58 55 53 51 49 49 48 48 48 48 48 48 48 49 50 51 52 52 52 50 49 47 47 46 47 47 47 48 48 48 49 49 49 49 49 48 48 47 47 47 48 49 50 51 52 52 52 52 52 53 53 53 53 53 53 52 52 51 51 51 51 51 51 51 50 50 50
58 59 59 60 61 61 61 61 61 60 60 60 60 60 60 59 60 60 59 58 56 54 52 49 48 48 48 48 48 48 48 48 49 50 51 52 52 52 52 51 49 48 47 47 47 47 47 47 48 48 48 47 47 47 47 46 46 46 47 47 48 49 50 51 52 52 52 52 53 53 53 53 53 52 52 51 51 51 51 51 51 51 51 50 50 50
57 57 58 58 59 59 59 59 59 59 59 59 59 59 58 58 58 58 58 57 57 55 53 50 48 47 47 47 48 47 47 48 48 49 50 51 52 53 53 52 51 50 49 48 48 48 48 48 48 48 47 47 47 46 46 46 46 46 47 47 48 48 49 50 51 51 52 52 52 53 53 53 52 52 51 51 51 51 51 51 51 51 51 50 50 50
55 56 56 57 57 58 58 57 57 57 57 57 57 57 57 57 57 57 57 56 56 55 54 51 48 47 46 47 47 47 47 47 47 48 49 51 52 53 53 52 52 51 50 49 49 49 49 49 49 49 48 48 47 47 47 47 47 47 47 47 47 47 48 49 49 50 51 51 52 52 52 52 51 51 50 50 50 51 51 51 51 51 51 51 50 50
54 54 55 55 56 56 56 56 56 55 56 56 56 56 56 56 56 56 55 55 55 54 53 50 48 46 45 45 45 45 46 46 47 47 48 50 51 52 52 52 52 51 50 50 50 49 49 50 50 49 49 49 48 48 48 48 47 47 46 46 46 46 46 47 48 49 50 50 51 51 51 51 51 50 50 50 50 51 51 51 51 51 51 51 50 50
53 53 53 53 54 54 54 54 54 54 54 54 54 54 54 54 54 54 54 54 53 52 51 49 47 45 44 44 44 44 44 45 46 46 47 49 50 51 52 52 52 51 51 50 50 49 49 49 50 50 50 49 49 49 49 49 48 47 47 46 45 45 45 46 46 47 48 49 50 50 50 50 50 50 50 50 50 51 51 51 51 51 51 51 50 50
52 51 51 51 51 52 52 52 52 51 51 51 51 51 51 51 51 52 52 52 51 51 50 48 46 44 43 43 43 43 44 44 45 46 47 48 49 51 52 52 52 51 51 50 50 49 49 49 49 49 50 50 50 50 50 49 49 48 47 46 45 44 44 45 45 46 47 48 48 49 49 49 49 49 49 50 50 50 51 51 51 51 51 51 50 50
50 49 49 49 49 49 49 49 49 49 48 48 48 48 48 48 49 49 49 49 50 49 49 47 46 44 43 42 42 43 43 44 44 45 46 47 49 50 51 52 52 52 51 51 50 49 49 49 49 49 50 50 50 50 50 50 49 49 47 46 45 45 44 44 45 45 46 46 47 47 48 48 48 48 49 49 50 50 51 51 51 51 51 51 50 50
48 48 48 47 47 47 47 47 47 46 46 46 46 46 46 46 46 46 46 47 47 48 47 47 46 44 43 42 41 42 42 43 44 44 45 46 48 49 51 52 52 52 51 51 50 50 49 49 49 49 49 50 50 51 51 51 50 49 48 47 46 45 45 44 44 45 45 45 46 46 47 47 47 48 48 49 50 50 51 51 51 51 51 51 50 50
46 46 46 46 46 45 45 45 45 45 45 45 45 45 44 44 43 43 43 43 44 44 45 45 45 44 42 41 40 40 41 42 43 43 45 46 47 49 50 51 52 52 51 51 50 50 49 49 49 49 49 50 51 51 51 51 51 50 49 48 46 46 45 45 44 44 44 45 45 45 46 46 47 47 48 49 50 50 51 51 51 51 51 51 51 50
44 45 45 45 45 45 45 45 45 44 44 44 44 44 43 42 41 40 40 40 40 40 41 42 43 43 42 40 39 39 39 40 41 42 43 45 46 48 49 51 51 51 51 51 50 49 49 48 49 49 50 50 51 51 52 52 51 51 49 48 47 46 45 45 44 44 44 44 45 45 45 46 46 47 48 49 50 50 51 51 51 51 51 51 51 50
44 44 44 44 45 44 44 44 44 44 43 43 42 42 41 40 39 39 39 39 38 38 37 38 39 40 41 39 38 37 37 38 39 41 42 44 45 47 48 49 50 50 50 50 49 48 48 47 48 49 49 50 51 51 52 52 52 51 50 48 47 46 45 45 44 44 44 44 44 45 45 45 46 47 48 49 50 51 51 51 51 51 51 51 51 51
43 43 44 44 44 44 43 43 43 43 42 42 41 41 40 39 39 39 39 39 38 37 36 36 37 38 38 38 37 36 36 36 38 39 41 42 44 45 46 47 48 49 48 48 47 46 46 46 47 48 48 49 50 51 52 52 51 51 50 48 47 45 45 45 44 44 44 44 45 45 45 45 46 47 48 49 50 51 51 51 51 51 51 51 51 51
43 43 43 44 44 43 43 43 43 42 42 41 41 40 39 39 39 39 39 39 39 38 37 37 37 37 36 36 35 35 34 35 36 37 39 40 42 43 44 45 46 47 47 46 45 44 44 44 45 46 47 48 49 50 51 51 50 50 48 47 46 45 44 44 44 45 45 45 45 45 46 46 46 47 48 49 50 50 51 51 52 52 52 52 51 51
43 44 44 44 44 44 43 43 43 43 43 42 41 40 40 40 40 40 40 40 40 40 39 39 38 38 37 35 34 33 33 33 34 35 37 39 40 41 42 43 44 44 44 44 43 42 42 42 43 44 45 46 47 48 48 49 48 47 47 46 45 44 44 44 44 45 45 46 46 46 47 47 47 47 48 49 50 50 51 51 52 52 52 52 51 51
45 45 45 45 45 45 44 44 45 45 44 43 43 42 42 42 41 41 42 42 42 41 41 40 39 39 37 36 34 33 32 32 33 34 35 37 38 39 40 41 41 42 42 41 41 40 40 40 41 42 42 43 44 45 45 46 45 45 45 44 43 43 43 43 44 45 46 47 47 47 48 48 48 48 49 49 50 50 51 51 52 52 52 52 51 50
46 47 47 47 47 46 46 46 46 46 46 46 45 44 44 44 44 43 43 43 43 43 42 41 40 39 38 36 34 33 32 32 32 33 34 35 36 37 38 38 39 39 39 39 38 38 38 39 39 40 40 41 42 42 43 43 43 43 43 43 42 42 42 43 44 45 46 47 48 48 48 49 49 49 49 49 50 50 51 51 52 52 51 51 50 50
48 48 48 49 48 48 47 47 47 47 47 47 47 46 46 46 46 45 45 45 45 44 44 43 41 40 38 36 34 33 33 33 33 33 33 34 34 35 35 36 36 36 36 36 36 36 37 37 38 38 39 39 40 40 41 41 42 42 42 42 41 41 41 42 43 45 46 47 47 48 48 49 50 50 50 50 50 50 50 51 51 51 50 50 50 49
49 49 50 50 50 49 49 48 48 48 48 48 48 47 47 47 47 47 47 47 46 45 44 44 42 40 38 36 34 34 34 34 34 34 33 33 33 33 33 33 33 33 33 33 34 34 35 36 37 37 38 38 38 39 39 40 40 40 40 40 40 40 41 42 43 44 45 46 47 47 48 49 50 50 50 50 50 50 50 50 50 50 50 49 49 49
49 50 50 50 50 50 50 49 49 48 48 48 48 48 48 48 48 48 48 48 47 46 44 43 42 40 38 37 36 35 35 35 35 34 33 33 33 32 32 32 32 32 31 31 32 33 33 34 35 36 36 37 37 37 38 38 38 39 39 39 39 39 40 41 42 43 44 45 45 46 47 48 49 50 49 49 49 49 49 49 49 49 49 49 49 48
47 49 50 50 51 51 50 50 49 49 49 49 49 49 49 49 49 49 48 47 46 45 44 43 41 39 38 37 37 36 36 36 35 34 34 34 33 32 32 32 32 31 31 30 31 31 32 33 33 34 35 35 35 36 36 37 37 37 37 38 38 38 39 40 41 42 43 43 44 45 46 47 48 48 48 48 48 49 49 49 49 48 48 48 48 48
45 47 48 49 50 50 50 50 49 49 48 49 49 49 48 48 48 47 46 45 44 43 42 41 39 38 38 37 36 36 35 35 34 34 34 34 33 32 32 32 32 32 31 30 30 30 31 31 32 32 33 33 34 34 35 35 35 36 36 37 37 38 38 39 40 40 41 42 42 43 44 45 46 47 47 47 47 48 48 48 48 48 48 48 48 47
40 42 44 45 46 47 47 47 47 47 46 46 46 46 46 45 44 43 42 42 41 41 40 39 38 37 36 35 35 34 34 34 33 33 33 33 32 32 33 33 33 33 32 31 30 30 30 31 31 31 32 32 32 33 33 34 34 35 35 36 36 37 37 38 39 39 40 40 41 42 42 43 44 44 45 45 46 47 47 47 47 47 47 47 47 47
36 37 38 39 40 41 41 42 42 42 41 41 41 41 40 40 39 39 38 38 38 38 38 37 37 37 35 35 34 34 33 32 32 32 32 32 31 32 32 33 33 33 32 32 31 31 30 30 30 30 30 30 31 31 32 32 33 33 34 34 35 36 36 37 37 38 38 39 39 40 40 41 41 42 43 44 45 46 47 47 47 47 47 47 47 47
33 33 33 34 34 35 35 35 35 35 35 35 35 35 35 35 35 35 35 35 35 35 35 36 36 35 34 34 33 33 32 31 31 31 31 31 31 31 31 32 32 33 33 32 32 31 31 30 30 29 29 29 29 29 30 30 31 32 32 33 33 34 35 35 36 36 37 37 38 38 38 39 40 41 43 44 45 46 46 46 46 46 46 46 46 46
31 31 30 31 31 31 31 31 31 30 30 30 30 30 30 30 31 32 32 31 31 32 33 33 33 33 32 32 32 31 30 30 30 30 29 29 29 29 29 30 31 31 32 32 32 32 31 30 30 29 28 28 27 28 28 28 29 30 30 31 31 32 33 33 34 34 35 35 36 36 37 38 39 41 42 44 44 45 45 46 46 46 46 46 46 46
30 29 29 29 28 28 29 29 28 28 27 26 26 26 26 27 28 28 27 27 27 29 30 30 30 30 29 29 29 29 29 30 29 28 27 27 27 27 27 27 28 30 30 31 32 32 31 31 30 29 28 27 27 27 27 27 27 27 28 28 29 30 31 31 32 32 33 33 34 34 36 37 38 40 42 43 43 44 44 45 45 45 45 45 46 46
29 29 28 27 27 27 27 27 28 28 27 26 25 25 25 26 26 25 24 23 25 27 28 27 27 27 27 27 28 28 29 28 27 26 25 26 25 24 24 25 26 28 29 30 31 32 31 31 30 29 28 27 27 26 26 26 26 26 26 26 27 28 28 29 30 30 31 32 32 34 35 36 38 39 41 41 42 43 43 44 44 44 45 45 45 46
27 27 27 27 26 26 26 27 27 27 27 27 27 27 28 29 28 26 24 23 24 26 26 26 25 25 25 26 27 27 27 26 25 25 25 25 24 23 22 23 25 26 27 28 29 30 31 31 30 29 28 28 27 27 27 26 26 26 26 25 26 26 27 27 28 29 30 31 32 33 34 36 37 38 40 41 41 42 43 43 43 44 44 45 45 45
26 26 26 26 26 26 26 26 26 27 26 26 26 27 29 31 31 30 28 27 26 27 27 26 26 25 25 26 27 27 26 25 24 24 24 24 23 21 21 22 23 24 25 26 28 29 30 30 30 30 29 28 28 27 27 27 27 26 26 26 25 26 26 27 27 28 30 31 32 33 34 36 37 38 39 40 41 42 42 42 43 43 44 44 45 45
26 26 26 26 26 26 26 26 26 26 25 26 26 27 28 31 32 33 33 31 30 29 28 28 27 27 27 27 27 27 26 25 25 25 24 24 23 21 21 22 23 23 24 25 26 27 28 29 30 29 29 28 27 27 27 28 27 27 27 26 26 26 26 27 28 29 30 31 32 34 35 36 37 38 39 40 41 41 41 42 42 43 43 44 44 45
27 27 27 27 28 28 27 27 26 25 25 25 26 26 27 29 31 33 34 33 32 31 30 29 29 29 29 28 27 26 25 25 26 26 26 25 24 22 22 22 23 24 24 24 25 26 27 27 28 29 29 28 27 27 27 28 28 28 28 27 27 27 27 28 29 30 31 32 33 34 35 36 37 38 39 40 40 41 41 41 42 42 43 43 44 44
28 28 28 28 29 29 28 27 26 25 25 25 25 26 26 27 29 30 32 33 34 33 32 31 30 30 30 30 29 27 25 25 26 27 27 26 25 24 23 24 24 25 25 25 25 25 25 26 26 27 28 28 27 27 27 27 28 28 28 28 28 28 28 29 29 30 32 33 34 35 36 37 38 38 39 40 40 40 41 41 41 42 42 43 43 44
30 29 29 29 29 29 29 28 27 26 26 26 25 26 26 27 28 29 31 32 33 33 33 31 30 30 30 30 29 28 26 26 27 28 28 27 25 24 24 25 25 25 26 26 26 26 26 25 25 26 27 27 27 27 27 27 28 28 29 29 29 29 29 29 30 31 32 33 34 35 36 37 38 39 39 39 40 40 40 41 41 41 42 42 43 43
31 31 30 30 30 30 29 28 28 27 27 26 26 26 27 27 28 29 30 31 32 33 32 32 30 30 29 29 28 28 27 27 27 28 28 27 26 25 25 25 25 25 27 27 27 27 27 26 26 26 27 27 27 27 27 27 27 28 29 29 30 30 30 30 31 31 32 34 35 36 36 37 38 38 39 39 39 39 40 40 40 41 41 42 43 44
33 33 33 32 32 31 30 29 28 27 27 26 26 27 27 28 29 30 31 31 32 32 32 32 31 30 29 28 28 28 27 28 28 28 29 28 26 26 25 25 25 25 27 28 28 28 28 28 28 27 27 27 27 27 27 27 27 28 29 29 30 30 30 31 31 32 33 34 35 35 36 37 37 38 38 38 38 39 39 39 40 40 41 42 43 44
34 34 34 34 33 33 31 30 28 27 26 26 26 27 28 29 30 31 32 33 33 33 33 32 31 30 29 28 27 27 27 28 28 29 29 29 28 27 26 26 25 26 27 27 28 29 29 29 29 29 29 28 28 28 28 28 28 28 28 29 30 30 30 31 31 32 33 34 34 35 35 36 36 37 37 37 37 38 38 39 40 40 41 42 43 44
35 35 35 34 34 33 32 30 28 27 26 26 27 28 28 30 31 32 33 33 34 34 34 34 33 32 30 29 28 28 28 28 28 29 30 30 30 29 28 27 27 27 27 27 28 29 30 30 30 30 30 29 29 29 29 29 29 29 28 29 29 30 31 31 32 32 33 33 34 34 35 35 35 36 36 36 37 37 38 38 39 40 41 42 43 44
36 35 35 34 34 33 31 30 28 27 26 26 26 27 28 29 30 31 32 33 33 34 34 34 34 34 33 31 30 29 29 29 29 29 30 30 31 30 29 29 28 28 28 28 28 29 29 30 30 30 30 30 30 29 29 29 29 29 29 29 29 30 31 31 32 32 33 33 33 34 34 34 35 35 35 36 36 37 37 38 39 40 41 42 43 44
37 36 36 35 34 32 31 29 28 27 26 25 25 26 26 27 29 30 31 32 32 33 33 34 34 34 34 33 32 31 30 30 30 30 30 31 31 30 30 29 29 28 28 29 29 29 29 30 30 30 30 30 30 30 29 29 29 29 29 29 29 30 30 31 32 32 33 33 33 33 34 34 34 35 35 36 36 37 37 38 39 40 41 42 43 45
38 37 36 35 34 33 31 29 28 27 25 24 23 23 24 25 27 28 29 30 31 31 32 32 33 34 34 34 34 33 32 31 31 31 31 31 30 30 30 29 29 28 29 29 29 29 29 30 30 30 30 30 30 30 29 29 29 29 29 29 29 29 30 31 32 32 33 33 33 33 33 34 34 35 35 36 36 37 38 38 39 40 41 42 43 44
39 38 37 36 35 33 31 30 28 27 25 23 22 21 21 22 24 25 27 29 29 30 31 31 32 33 34 34 34 34 33 32 31 31 31 31 30 30 30 29 29 28 28 28 28 29 29 30 30 30 30 30 30 30 30 29 29 29 29 29 29 29 31 31 32 32 33 33 33 34 34 34 35 35 36 36 37 38 38 39 40 40 41 42 43 44
39 38 38 37 36 34 32 31 29 27 26 24 22 21 20 21 22 23 25 27 28 29 30 30 31 32 33 34 34 34 33 32 31 31 31 31 30 30 29 29 29 28 28 28 28 29 29 30 30 30 30 30 30 31 30 30 29 29 29 29 29 30 31 31 32 32 33 34 34 34 35 35 35 36 37 38 38 39 39 40 40 41 41 42 43 43
38 38 38 37 36 35 34 32 30 29 27 26 24 23 22 22 22 23 24 25 27 28 29 30 30 31 32 33 33 33 33 33 32 31 30 30 30 30 30 29 29 28 28 28 29 29 29 30 30 30 30 30 31 31 31 31 30 30 29 29 29 30 31 31 32 32 33 34 34 34 34 35 36 37 37 38 39 39 40 40 40 41 41 42 42 43
37 37 37 37 36 35 34 33 32 31 30 28 27 25 25 24 24 25 25 25 26 27 28 29 29 30 31 32 33 33 33 33 32 31 30 30 30 30 30 30 29 29 29 29 29 29 29 30 30 30 30 31 32 32 32 31 31 30 30 30 30 30 31 31 32 33 33 33 33 33 34 34 35 36 37 38 38 39 39 39 40 40 41 41 42 43
37 36 36 36 35 35 34 34 33 32 31 30 28 27 26 26 26 26 26 27 27 27 28 28 29 30 30 31 32 32 33 33 32 32 31 30 30 30 30 30 30 29 29 29 29 29 29 29 30 30 30 31 32 33 32 31 31 31 31 31 31 31 32 32 32 32 32 33 33 33 33 34 34 35 36 36 37 38 38 39 39 39 40 40 41 42
36 35 35 35 34 34 34 34 33 33 32 31 29 28 27 27 27 27 28 28 28 27 28 28 29 29 30 30 31 32 32 32 32 32 32 31 31 31 31 31 30 30 29 29 29 29 29 29 29 30 30 31 32 33 32 32 31 31 31 31 32 32 33 33 32 32 32 32 32 32 32 32 33 33 34 35 35 36 37 38 38 38 39 40 40 41
34 34 34 34 33 33 33 33 33 33 32 31 30 29 28 28 28 29 29 29 29 28 28 28 29 29 29 30 30 31 31 32 32 32 32 32 32 31 31 31 30 29 29 28 28 28 28 29 29 30 30 31 31 32 32 32 31 31 32 32 33 33 33 32 32 31 31 31 31 31 31 31 31 32 33 34 35 35 36 37 37 38 38 39 39 40
33 33 33 33 32 32 32 32 32 32 32 31 31 30 29 29 30 30 30 30 29 29 29 29 29 29 29 29 30 30 31 31 32 32 33 32 32 32 31 30 29 28 27 27 27 27 27 28 28 29 29 29 29 29 30 30 30 30 31 32 32 32 32 31 31 30 30 30 30 30 30 30 31 31 32 34 35 36 36 37 37 37 38 38 38 39
32 32 32 32 31 31 31 31 31 31 31 31 31 30 30 31 31 31 31 31 30 30 30 29 29 29 29 29 30 30 31 31 31 32 32 32 32 31 30 29 28 27 26 26 26 26 26 26 26 26 27 27 26 26 26 26 27 27 28 29 29 30 30 29 29 28 28 28 29 29 29 30 31 32 33 34 35 36 37 37 37 37 37 37 38 38
Wind_Direction
285 285 285 285 284 284 284 284 284 284 284 284 285 285 285 285 285 284 283 283 282 282 281 280 278 276 273 271 268 266 263 261 260 258 257 255 255 255 255 255 254 253 252 252 252 252 252 253 253 253 252 251 251 251 251 252 253 254 255 256 257 258 258 258 258 257 257 256 256 256 255 255 255 255 254 253 252 252 251 250 250 250 250 251 251 252
285 285 284 284 284 284 284 284 284 284 284 284 284 284 284 284 284 284 283 283 282 281 281 280 279 277 275 272 270 267 265 262 260 258 256 255 254 254 254 255 255 254 253 253 252 252 252 252 252 252 252 251 251 252 252 253 254 255 256 256 257 257 257 257 257 257 256 256 255 255 255 254 254 254 253 252 252 251 250 250 250 250 250 251 251 251
285 284 284 284 283 283 283 283 283 283 283 283 283 283 283 283 283 283 283 283 282 281 280 280 279 277 275 273 271 269 266 263 261 258 256 255 254 254 254 255 255 255 255 254 253 252 252 252 252 252 252 252 252 253 253 254 255 255 256 256 256 256 256 256 256 256 255 255 255 254 254 254 253 253 252 251 250 250 249 249 249 250 250 250 251 251
284 284 283 283 283 282 282 282 283 283 282 282 282 282 282 282 282 282 283 283 282 282 281 280 279 277 276 274 272 270 267 265 262 259 257 255 254 253 253 254 255 255 255 255 254 253 252 252 252 252 252 252 253 254 254 255 255 255 256 256 256 256 256 256 255 255 255 254 254 254 254 253 253 252 251 250 249 249 249 249 249 250 250 250 250 250
284 283 283 282 282 282 281 282 282 282 282 281 281 281 281 281 281 281 282 282 282 282 281 281 280 278 276 274 272 270 268 266 263 261 258 256 254 253 253 253 254 255 255 255 254 253 253 252 252 252 252 252 253 254 254 255 255 255 255 256 256 256 256 255 255 254 254 254 253 253 253 253 252 251 250 249 248 248 248 248 249 249 250 250 250 250
283 282 282 282 282 281 281 281 281 281 281 281 281 281 281 281 281 281 281 282 282 282 282 281 280 279 277 275 273 271 269 266 264 261 259 256 254 253 252 252 253 254 255 255 255 254 253 253 252 252 252 252 253 253 254 254 255 255 255 255 256 256 256 255 254 254 253 253 253 253 253 252 251 250 249 248 247 247 247 248 249 249 250 250 250 250
283 282 281 281 281 281 281 281 281 281 281 281 281 281 281 281 281 281 282 282 282 282 282 282 281 280 278 275 273 270 268 266 264 261 259 256 254 252 251 251 251 252 254 255 255 255 254 253 253 252 252 252 252 253 253 254 254 255 255 255 255 256 255 255 254 253 253 253 252 252 252 251 250 249 248 247 247 247 247 248 249 249 249 249 249 249
283 282 282 282 282 282 282 282 282 282 282 282 282 282 282 282 282 282 283 283 283 283 283 283 282 280 278 275 273 270 268 265 263 261 258 256 254 252 250 250 250 251 252 254 255 255 254 254 253 253 253 253 252 253 253 253 254 254 254 255 255 256 256 255 254 254 253 253 252 252 251 251 250 248 248 247 246 247 247 248 248 249 249 249 249 249
284 284 283 283 283 283 283 283 282 283 283 283 283 283 283 283 284 284 285 285 285 285 285 284 282 280 278 275 273 270 268 265 262 260 258 255 253 251 249 249 248 249 250 252 253 254 254 254 253 253 253 253 253 253 253 253 253 253 254 254 255 255 256 255 255 254 253 253 252 252 251 250 249 248 247 246 246 246 247 248 248 249 249 249 249 249
285 285 285 285 285 285 285 285 284 284 284 284 284 284 285 286 287 287 288 288 287 287 286 285 283 281 278 276 273 270 268 265 263 260 257 255 252 250 248 248 247 248 249 251 252 253 254 253 253 252 252 252 252 252 253 253 253 253 253 253 254 255 255 255 255 254 253 253 253 252 251 250 249 247 246 246 246 246 247 248 248 249 249 249 248 248
286 286 286 286 286 286 286 286 286 286 286 286 286 286 286 288 289 291 290 289 288 288 288 287 286 284 281 278 274 271 268 266 263 261 258 255 252 250 248 247 246 247 248 250 252 253 254 253 253 252 252 251 251 252 252 252 252 252 252 252 253 253 254 254 254 254 254 253 253 252 251 250 248 247 246 246 246 246 247 247 248 249 249 249 249 249
287 287 287 287 287 287 287 287 287 287 287 287 288 288 289 290 291 292 291 290 290 290 291 290 288 286 283 280 276 272 269 266 263 261 258 255 253 250 248 247 246 247 248 249 251 253 254 254 254 253 252 251 251 251 251 251 251 251 250 251 251 251 252 252 253 253 253 253 253 252 251 250 248 247 246 246 246 246 247 248 248 249 249 249 249 249
287 287 288 287 287 287 288 288 288 288 288 289 290 291 292 293 293 292 292 291 291 292 292 291 289 287 284 282 278 274 270 266 263 261 258 255 253 251 249 248 247 248 248 250 252 253 255 255 255 254 252 251 250 250 250 250 249 249 249 249 249 250 250 251 252 252 253 253 253 252 251 250 248 246 245 245 246 246 247 248 248 249 249 249 249 249
287 287 287 287 287 287 287 288 288 288 289 289 291 292 293 293 293 293 293 292 292 292 292 291 289 287 285 282 280 276 272 267 264 261 258 255 253 251 250 249 248 249 250 251 253 254 255 256 255 254 253 251 250 249 249 248 248 248 247 247 247 248 249 250 251 252 252 253 252 252 251 249 248 246 245 245 245 246 247 248 248 249 249 249 249 249
287 287 286 286 286 286 287 287 288 288 289 289 291 292 292 293 293 293 294 293 293 292 291 289 288 286 284 283 281 278 274 269 265 261 258 255 253 252 250 249 249 249 251 253 254 256 256 256 256 255 253 252 250 249 248 248 247 246 246 246 246 247 248 249 251 251 252 252 252 252 251 249 248 247 246 245 245 246 247 248 248 249 249 249 249 250
286 286 286 285 286 286 287 288 289 289 290 290 291 293 293 294 294 294 294 293 292 291 290 289 288 286 284 283 281 279 276 272 267 263 259 256 254 252 251 250 250 251 252 254 255 257 257 257 257 256 254 252 251 249 248 247 247 246 245 245 246 247 249 250 251 251 252 252 252 251 251 250 248 247 246 246 246 246 247 248 248 249 249 250 250 250
287 287 286 287 287 288 289 290 290 291 291 292 292 293 294 295 295 294 293 292 291 290 290 289 289 287 286 284 282 280 278 274 269 264 261 258 256 254 253 252 252 252 253 255 257 258 258 258 257 256 255 253 251 249 248 247 246 245 245 246 247 248 249 251 251 252 252 252 252 251 251 250 249 248 247 247 246 247 247 248 249 249 250 250 250 250
287 287 287 288 288 289 290 290 291 291 292 293 294 295 295 295 294 293 292 291 291 290 290 289 288 287 286 286 285 283 280 276 271 266 263 260 258 256 255 254 253 254 255 256 258 259 259 259 257 256 255 253 251 249 248 247 246 246 246 247 248 249 250 251 252 252 252 252 252 252 251 251 250 249 248 248 248 248 248 249 249 250 250 251 251 251
286 287 287 287 288 289 289 289 290 290 291 292 294 294 294 294 293 292 291 290 290 290 290 289 288 286 285 285 285 283 281 277 273 269 266 263 260 259 258 257 256 256 257 258 259 260 260 259 258 256 254 253 251 250 248 247 246 246 247 248 249 250 251 252 252 252 252 252 252 252 252 251 251 250 250 249 249 249 249 250 250 251 251 251 251 251
283 284 284 285 286 287 287 287 288 289 290 291 291 292 291 291 291 290 290 290 290 290 289 288 287 286 285 284 283 281 279 277 275 272 269 266 263 261 260 260 260 259 259 259 260 260 260 259 257 256 254 253 252 251 250 249 248 248 248 249 250 251 251 252 252 252 252 252 252 251 251 251 251 251 250 250 250 249 250 250 250 251 251 251 251 251
278 280 281 282 283 283 284 285 286 286 287 287 287 288 288 288 288 289 289 290 290 289 288 287 286 285 284 283 281 279 278 277 276 274 272 269 266 264 263 262 262 261 260 260 260 260 260 259 257 256 254 253 252 252 251 251 251 251 251 251 252 252 252 252 252 253 252 252 251 251 250 250 250 250 250 250 250 250 250 250 250 251 251 251 251 251
272 274 277 278 278 279 281 282 282 283 283 283 284 284 285 286 286 287 288 289 289 288 287 286 285 284 283 281 279 277 276 276 276 275 274 271 268 266 264 263 263 261 261 261 261 261 260 259 258 256 255 254 253 253 253 253 253 253 253 253 253 253 253 253 253 253 253 252 251 250 249 249 249 249 249 249 249 249 250 250 250 250 250 251 251 250
269 272 274 275 276 277 278 279 280 280 281 281 281 282 283 284 285 286 287 288 288 287 287 286 285 283 281 280 279 277 276 276 276 275 275 273 271 268 266 264 263 261 261 261 261 261 261 260 259 257 256 255 255 254 254 254 254 254 254 254 254 254 253 253 253 253 253 252 251 250 248 248 248 248 248 248 248 249 249 249 249 250 250 250 250 250
272 273 273 274 275 276 277 277 278 278 279 280 281 282 283 284 285 285 286 286 286 286 286 285 285 283 282 281 280 279 278 277 277 276 275 274 272 269 268 266 264 262 261 260 261 261 261 260 260 259 258 257 257 257 256 256 256 255 254 254 253 253 253 253 252 252 252 251 250 249 247 246 245 245 245 246 246 247 248 248 249 249 249 250 250 250
276 275 274 274 275 275 276 276 277 278 278 279 280 281 282 283 284 285 285 285 285 285 286 285 285 284 284 283 282 280 279 278 277 277 276 274 272 270 268 268 266 264 262 260 260 261 261 261 261 260 259 259 258 258 257 257 256 255 254 253 253 252 252 251 251 251 250 249 248 247 245 244 243 242 242 243 245 246 247 248 248 249 249 249 249 249
279 278 277 276 276 276 276 277 278 278 279 279 280 281 282 283 284 284 284 285 286 286 287 286 286 285 285 285 283 282 281 279 278 277 276 275 273 270 268 268 268 266 264 262 261 261 262 261 261 260 260 259 258 258 257 256 255 254 253 252 251 251 250 250 249 249 248 247 246 244 243 241 241 241 241 242 244 245 246 247 247 248 249 249 249 249
281 280 279 279 279 279 280 280 281 281 281 281 281 282 283 283 284 285 286 288 290 290 288 287 287 287 287 286 285 284 283 281 279 277 275 274 272 270 269 269 269 268 266 264 263 262 262 261 260 260 260 259 259 257 256 255 254 253 252 251 250 249 249 248 247 247 246 245 244 242 241 240 239 240 240 242 243 244 245 246 247 248 248 249 249 249
283 282 281 281 281 282 283 284 285 285 285 285 285 286 286 285 286 288 291 294 294 292 290 289 289 289 289 289 288 286 285 283 281 278 277 275 273 271 270 270 270 269 268 266 264 262 262 261 260 260 260 259 258 258 256 255 254 253 252 251 250 249 248 247 246 246 245 244 243 242 240 240 239 240 241 242 243 244 245 246 247 248 248 248 248 248
283 283 282 282 282 284 285 287 288 289 290 291 291 292 292 291 291 293 297 298 296 294 293 294 294 294 293 292 290 287 285 284 283 281 280 278 275 273 271 270 270 269 268 267 265 263 262 261 260 260 260 259 258 258 257 256 255 254 252 251 250 249 248 247 246 245 244 244 243 242 241 240 240 241 242 243 244 245 246 246 247 247 247 248 248 248
282 282 282 283 283 284 284 285 286 287 289 290 292 293 293 294 295 297 300 300 297 296 297 298 298 297 296 294 291 288 287 286 286 285 284 281 279 275 273 271 270 269 268 268 267 265 263 261 260 259 259 259 258 258 257 256 256 255 253 252 251 249 248 247 246 245 245 244 243 242 242 241 242 242 243 243 244 245 245 246 246 247 247 247 247 247
281 281 281 282 283 282 282 282 282 283 284 284 286 287 288 290 292 295 297 297 297 296 297 297 297 297 296 294 292 291 291 291 289 288 286 284 281 278 276 274 272 270 269 269 268 267 265 263 261 259 259 258 258 258 258 257 256 255 254 253 251 250 249 248 247 246 245 244 244 243 242 242 242 242 243 243 244 244 245 245 246 246 246 247 247 247
281 281 281 281 281 281 280 280 280 280 280 280 281 281 282 284 287 290 292 294 295 295 295 295 295 295 294 293 292 292 293 293 292 290 288 285 282 280 278 276 275 273 272 270 269 268 267 266 264 261 259 258 258 258 258 257 257 256 254 253 252 251 249 248 247 246 245 244 244 243 243 242 242 243 243 243 244 244 244 245 245 246 246 247 247 247
282 281 281 280 280 279 279 279 279 278 278 279 279 280 281 282 284 286 289 290 292 293 293 292 292 292 292 292 291 291 291 291 290 289 287 285 283 281 279 278 277 276 275 273 271 269 268 267 266 264 262 259 258 257 257 257 257 256 255 254 252 251 250 248 247 246 245 245 244 243 243 243 243 243 243 243 244 244 244 245 245 246 246 247 247 248
284 283 281 280 280 279 279 278 277 276 276 277 278 280 281 283 284 285 286 288 289 290 291 291 290 290 290 290 290 289 289 289 288 287 286 284 282 280 278 277 277 276 276 275 274 271 269 267 267 266 265 262 259 257 256 256 256 256 255 254 253 251 250 249 248 247 246 245 244 244 244 243 243 243 243 244 244 244 245 245 246 246 247 247 248 248
288 285 284 282 281 280 279 278 276 275 274 274 276 278 280 282 283 284 284 285 286 288 289 289 289 288 288 288 288 288 289 289 288 286 285 284 281 278 276 275 275 274 275 274 273 272 271 269 267 266 265 263 260 257 255 255 255 255 255 254 253 252 251 250 248 247 246 246 245 244 244 244 244 244 244 245 245 245 246 246 247 247 248 248 249 249
290 289 288 288 286 285 283 280 277 275 273 272 273 275 277 280 281 282 283 283 284 285 286 287 287 287 287 287 287 287 288 288 287 286 284 283 281 278 275 273 272 271 272 271 271 270 269 268 266 265 264 264 262 259 256 254 254 254 255 255 254 253 252 251 249 248 247 246 246 245 245 245 245 245 246 246 246 247 247 247 247 248 248 249 249 250
291 291 291 292 291 291 290 287 283 278 274 272 272 273 275 277 279 281 281 282 282 283 284 284 285 285 285 286 286 287 287 287 286 285 284 283 281 278 276 273 270 269 269 268 268 267 267 266 265 264 263 262 262 261 258 256 254 254 254 255 255 254 253 252 251 249 248 248 247 247 246 246 246 247 247 247 248 248 248 248 249 249 249 250 250 251
288 289 289 291 292 292 292 291 288 284 280 276 273 272 273 275 277 278 279 280 281 282 283 284 284 284 284 284 285 285 285 285 284 284 283 283 281 279 277 274 270 268 267 266 266 266 265 264 264 263 262 261 261 260 259 258 256 254 254 254 254 254 253 252 251 250 249 248 248 248 248 247 248 248 248 248 249 249 249 249 250 250 250 251 251 251
286 286 287 288 289 291 292 292 291 288 284 279 275 272 271 271 272 274 276 277 279 280 282 282 283 283 283 283 283 283 283 283 283 283 283 282 282 280 279 276 273 271 269 267 266 265 265 264 263 262 262 261 260 260 259 258 257 256 254 253 252 252 251 251 250 250 249 249 248 248 248 248 248 249 249 249 250 250 250 251 251 251 252 252 252 252
285 285 285 286 287 289 290 290 290 289 285 281 275 271 268 267 267 269 271 272 275 277 278 280 281 282 282 283 283 282 282 282 282 282 282 281 281 281 279 278 276 274 272 270 268 267 266 265 264 263 262 261 260 259 259 258 258 256 254 252 250 249 249 249 249 248 248 248 248 248 248 249 249 249 250 251 251 251 252 252 252 252 252 252 252 253
281 283 284 285 286 286 287 288 288 287 285 282 278 273 269 266 265 266 267 269 271 272 274 276 277 279 280 281 281 282 282 282 281 281 281 281 280 280 279 278 276 275 273 272 270 269 267 267 266 265 264 262 261 259 258 257 257 256 254 252 250 248 247 247 246 246 246 246 247 247 247 248 249 250 251 251 252 252 253 253 253 253 253 253 253 253
278 279 281 282 283 284 284 284 284 284 283 282 281 278 273 269 267 266 266 267 268 269 270 272 274 275 277 278 279 280 280 280 281 281 280 280 279 278 278 277 276 275 274 273 271 270 269 268 267 267 266 264 263 261 258 257 255 254 253 252 250 247 246 244 244 243 244 244 245 245 246 247 248 249 250 251 252 252 253 253 253 253 253 253 253 253
275 276 277 279 280 280 280 280 280 281 281 282 283 282 279 275 271 268 266 266 267 267 268 270 271 273 275 276 277 278 278 279 279 279 279 278 278 277 276 276 275 275 274 273 273 272 271 269 268 266 265 264 263 261 259 256 254 252 251 249 248 246 245 243 242 242 242 242 243 244 244 245 247 248 249 250 251 252 252 252 253 253 253 253 253 254
274 274 275 275 276 277 277 277 278 278 279 280 281 282 281 278 275 272 269 268 267 267 267 268 270 271 273 274 276 277 278 278 278 277 277 276 276 275 274 274 274 274 274 274 274 273 273 271 269 267 266 264 262 260 258 255 253 250 249 247 246 245 245 244 243 242 242 242 242 243 244 245 246 248 249 250 250 251 251 252 252 253 253 253 254 254
274 273 273 273 274 275 275 276 277 277 278 278 279 279 279 278 277 275 273 271 269 268 267 267 268 270 272 273 275 276 277 278 278 277 276 275 274 273 273 272 273 273 274 274 274 274 273 272 271 269 267 264 261 258 256 253 250 248 246 244 244 244 244 244 244 244 244 243 243 244 245 246 247 248 249 249 250 251 251 251 252 252 252 253 253 254
274 274 273 273 274 274 275 275 276 276 276 276 276 277 277 278 278 277 276 274 272 270 268 268 268 269 270 272 274 275 276 277 278 277 276 274 273 272 272 272 272 273 273 274 274 274 273 272 271 269 266 263 260 257 254 251 248 245 243 242 242 242 243 243 244 245 245 246 247 247 248 248 249 249 250 250 250 250 250 251 251 251 252 252 253 253
274 273 273 273 273 273 273 273 273 273 273 274 275 276 277 278 278 279 278 276 274 272 270 268 268 268 269 271 272 274 275 276 277 277 277 275 273 272 271 272 272 273 273 273 273 272 271 270 269 266 263 260 258 255 252 249 245 242 240 239 239 240 242 242 243 244 246 248 249 250 251 251 251 251 251 251 251 250 251 251 251 252 252 252 253 253
272 272 272 272 272 271 271 271 271 271 272 273 274 275 277 278 279 280 279 278 276 273 271 269 268 268 268 270 271 273 274 275 276 276 276 275 274 272 271 271 272 272 272 272 271 270 269 267 266 263 260 257 255 253 251 248 244 241 238 236 237 238 240 241 242 244 246 248 250 251 252 253 253 254 254 254 253 253 253 253 253 253 254 254 254 254
270 271 271 271 271 271 270 270 270 271 272 273 274 275 277 278 279 280 280 279 278 275 273 270 268 267 267 268 270 272 272 273 274 274 274 274 273 272 271 270 270 270 270 270 269 268 267 266 264 261 258 255 253 250 249 246 243 239 236 235 235 236 238 240 241 244 246 249 250 251 252 253 254 255 256 257 258 257 257 256 256 256 256 256 256 257
269 270 271 271 271 271 271 270 270 271 272 273 274 275 276 277 278 279 279 279 278 277 275 272 269 267 266 267 268 270 270 271 271 272 272 273 273 272 270 269 267 266 266 266 266 266 266 265 264 261 259 256 253 250 248 246 243 240 237 235 234 235 237 239 242 244 247 249 250 252 253 254 256 257 259 260 261 261 261 261 260 260 260 260 260 259
269 270 271 271 272 272 271 270 270 271 272 272 273 274 275 275 276 276 277 277 278 277 276 274 271 268 267 267 268 269 269 269 269 270 271 272 272 270 268 266 263 261 261 262 263 264 265 265 264 262 260 257 255 253 250 247 244 241 239 237 236 237 239 241 243 245 247 250 252 253 255 257 258 260 262 263 264 264 264 264 264 264 263 263 263 262